Location: Newark
(7.1028°S, 35.3258°W)
Time: 14:25:30
(UTC+00:00)

Vanguard 3 - Pass Details

Date: 24 February 2020
Orbit: 508 x 3262 km, 33.3° (Epoch: 30 March)

Event Time Altitude Azimuth Distance (km) Brightness Sun altitude
Rises 18:16:20 0° 319° (NW) 5,600 11.8 35.1°
Reaches altitude 10° 18:19:39 10° 324° (NW) 4,911 11.6 34.3°
Maximum altitude 18:34:54 58° 40° (NE) 3,415 10.4 30.6°
Drops below altitude 10° 18:54:19 10° 113° (ESE) 6,125 11.2 25.8°
Sets 18:58:58 0° 116° (ESE) 7,006 11.5 24.6°
